Date String (YYYY-MM-DD hh:mm:ss) UTC,Instrument flags,absolute air pressure of the measurement (hPa),sample flow rate (lpm),inlet stack bypass flow (lpm),air temperature of the measurement (°C),ambient temperature measured by the external sensor (°C),aerosol sample conditioner tube jacket temperature (°C),OPC LED temperature (°C),internal box temperature (°C),relative humidity of the measurement (%),span deviation,mass concentration of particles derived from Lorenz-Mie calculation of OPC scattering (μg/m³),mass concentration of particles derived from Lorenz-Mie calculation of OPC scattering (μg/m³),mass concentration of particles derived from Lorenz-Mie calculation of OPC scattering (μg/m³)
DateTimeUTC,F1_M11,P_M11,Q1_M11,Q2_M11,T1_M11,T2_M11,T3_M11,T4_M11,T5_M11,U1_M11,ZSPAN_M11,X2_M11,X0_M11,X1_M11
2023-11-19 06:00:00,SystemResetWarning,0824.3,5.00,000.00,024.7,023.5,000.0,033.0,026.0,17.5,0000.0,0001.17,0002.98,0000.93
2023-11-19 06:01:00,SystemResetWarning,0824.3,4.99,000.00,024.7,023.6,000.0,033.0,026.0,17.5,0000.0,0001.17,0002.95,0000.93
2023-11-19 06:02:00,SystemResetWarning,0824.3,5.00,000.00,024.7,023.6,000.0,033.0,026.0,17.6,0000.0,0001.16,0002.81,0000.92
2023-11-19 06:03:00,SystemResetWarning,0824.3,5.00,000.00,024.7,023.6,000.0,033.0,026.0,17.6,0000.0,0001.16,0001.65,0000.93
2023-11-19 06:04:00,SystemResetWarning,0824.3,4.99,000.00,024.7,023.6,000.0,033.0,026.0,17.5,0000.0,0001.14,0001.62,0000.92
2023-11-19 06:05:00,SystemResetWarning,0824.3,5.00,000.00,024.7,023.5,000.0,033.0,026.0,17.6,0000.0,0001.13,0001.59,0000.93
2023-11-19 06:06:00,SystemResetWarning,0824.3,5.00,000.00,024.7,023.6,000.0,033.0,026.0,17.5,0000.0,0001.13,0001.61,0000.92
2023-11-19 06:07:00,SystemResetWarning,0824.3,5.00,000.00,024.7,023.5,000.0,033.0,026.0,17.6,0000.0,0001.13,0001.64,0000.92
2023-11-19 06:08:00,SystemResetWarning,0824.3,5.00,000.00,024.7,023.5,000.0,033.0,026.0,17.7,0000.0,0001.13,0001.62,0000.92
2023-11-19 06:09:00,SystemResetWarning,0824.3,5.00,000.00,024.6,023.5,000.0,033.0,026.0,17.5,0000.0,0001.13,0001.65,0000.93
2023-11-19 06:10:00,SystemResetWarning,0824.3,5.00,000.00,024.6,023.5,000.0,033.0,026.0,17.7,0000.0,0001.17,0001.72,0000.94
2023-11-19 06:11:00,SystemResetWarning,0824.3,5.00,000.00,024.6,023.5,000.0,033.0,026.0,17.9,0000.0,0001.18,0001.76,0000.95
2023-11-19 06:12:00,SystemResetWarning,0824.3,5.00,000.00,024.6,023.5,000.0,033.0,026.0,17.9,0000.0,0001.19,0001.78,0000.97
2023-11-19 06:13:00,SystemResetWarning,0824.3,5.00,000.00,024.6,023.5,000.0,033.0,026.0,17.8,0000.0,0001.20,0001.81,0000.99
2023-11-19 06:14:00,SystemResetWarning,0824.4,5.01,000.00,024.6,023.5,000.0,033.0,026.0,17.7,0000.0,0001.23,0001.86,0000.99
2023-11-19 06:15:00,SystemResetWarning,0824.4,5.00,000.00,024.6,023.5,000.0,033.0,026.0,17.7,0000.0,0001.22,0001.82,0001.01
2023-11-19 06:16:00,SystemResetWarning,0824.4,5.00,000.00,024.6,023.5,000.0,033.0,026.0,18.0,0000.0,0001.22,0001.71,0001.01
2023-11-19 06:17:00,SystemResetWarning,0824.4,5.00,000.00,024.6,023.5,000.0,033.0,026.0,18.1,0000.0,0001.22,0001.68,0001.03
2023-11-19 06:18:00,SystemResetWarning,0824.4,5.00,000.00,024.6,023.5,000.0,033.0,026.0,17.9,0000.0,0001.22,0001.66,0001.04
2023-11-19 06:19:00,SystemResetWarning,0824.4,5.00,000.00,024.6,023.5,000.0,033.0,026.0,17.7,0000.0,0001.25,0001.72,0001.05
2023-11-19 06:20:00,SystemResetWarning,0824.3,4.99,000.00,024.6,023.5,000.0,033.0,026.0,17.7,0000.0,0001.22,0001.62,0001.04
2023-11-19 06:21:00,SystemResetWarning,0824.3,4.99,000.00,024.6,023.5,000.0,033.0,026.0,17.7,0000.0,0001.22,0001.60,0001.05
2023-11-19 06:22:00,SystemResetWarning,0824.3,5.00,000.00,024.6,023.5,000.0,033.0,025.9,17.6,0000.0,0001.21,0001.60,0001.05
2023-11-19 06:23:00,SystemResetWarning,0824.3,5.00,000.00,024.6,023.5,000.0,033.0,025.9,17.5,0000.0,0001.24,0001.76,0001.04
2023-11-19 06:24:00,SystemResetWarning,0824.3,5.00,000.00,024.6,023.5,000.0,033.0,025.9,17.4,0000.0,0001.22,0001.74,0001.02
2023-11-19 06:25:00,SystemResetWarning,0824.3,5.00,000.00,024.6,023.5,000.0,033.0,025.9,17.5,0000.0,0001.21,0001.72,0001.03
2023-11-19 06:26:00,SystemResetWarning,0824.3,5.00,000.00,024.6,023.5,000.0,033.0,025.9,17.5,0000.0,0001.21,0001.72,0001.02
2023-11-19 06:27:00,SystemResetWarning,0824.3,5.01,000.00,024.6,023.5,000.0,033.0,025.9,17.5,0000.0,0001.21,0001.73,0001.02
2023-11-19 06:28:00,SystemResetWarning,0824.3,5.00,000.00,024.6,023.5,000.0,033.0,025.9,17.8,0000.0,0001.22,0001.78,0001.01
2023-11-19 06:29:00,SystemResetWarning,0824.3,5.00,000.00,024.6,023.5,000.0,033.0,026.0,18.0,0000.0,0001.23,0001.80,0001.00
2023-11-19 06:30:00,SystemResetWarning,0824.3,5.00,000.00,024.6,023.5,000.0,033.0,026.0,17.9,0000.0,0001.23,0001.81,0001.00
2023-11-19 06:31:00,SystemResetWarning,0824.3,5.00,000.00,024.6,023.5,000.0,033.0,026.0,17.7,0000.0,0001.22,0001.79,0001.00
2023-11-19 06:32:00,SystemResetWarning,0824.3,4.99,000.00,024.6,023.5,000.0,033.0,025.9,17.7,0000.0,0001.24,0001.86,0001.01
2023-11-19 06:33:00,SystemResetWarning,0824.3,4.99,000.00,024.6,023.5,000.0,033.0,026.0,17.8,0000.0,0001.24,0001.85,0001.01
2023-11-19 06:34:00,SystemResetWarning,0824.3,5.00,000.00,024.6,023.5,000.0,033.0,025.9,17.6,0000.0,0001.20,0001.67,0001.02
2023-11-19 06:35:00,SystemResetWarning,0824.3,4.99,000.00,024.6,023.5,000.0,033.0,026.0,18.0,0000.0,0001.21,0001.65,0001.03
2023-11-19 06:36:00,SystemResetWarning,0824.3,5.00,000.00,024.6,023.6,000.0,033.0,026.0,17.9,0000.0,0001.24,0001.71,0001.05
2023-11-19 06:37:00,SystemResetWarning,0824.3,5.01,000.00,024.6,023.5,000.0,033.0,026.0,17.9,0000.0,0001.30,0001.85,0001.06
2023-11-19 06:38:00,SystemResetWarning,0824.3,5.00,000.00,024.6,023.5,000.0,033.0,026.0,17.9,0000.0,0001.31,0001.87,0001.07
2023-11-19 06:39:00,SystemResetWarning,0824.2,5.00,000.00,024.6,023.5,000.0,032.9,026.0,17.6,0000.0,0001.32,0001.89,0001.07
2023-11-19 06:40:00,SystemResetWarning,0824.1,5.00,000.00,024.6,023.5,000.0,032.9,026.0,17.6,0000.0,0001.33,0001.90,0001.09
2023-11-19 06:41:00,SystemResetWarning,0824.1,5.00,000.00,024.5,023.5,000.0,032.9,026.0,17.5,0000.0,0001.32,0001.96,0001.10
2023-11-19 06:42:00,SystemResetWarning,0824.1,5.00,000.00,024.5,023.5,000.0,032.9,025.9,17.1,0000.0,0001.34,0001.99,0001.10
2023-11-19 06:43:00,SystemResetWarning,0824.1,4.99,000.00,024.5,023.4,000.0,032.9,025.9,16.8,0000.0,0001.35,0002.00,0001.11
2023-11-19 06:44:00,SystemResetWarning,0824.1,5.00,000.00,024.5,023.4,000.0,032.9,025.9,16.7,0000.0,0001.38,0002.08,0001.12
2023-11-19 06:45:00,SystemResetWarning,0824.2,4.99,000.00,024.5,023.4,000.0,032.9,025.9,17.0,0000.0,0001.42,0002.19,0001.13
2023-11-19 06:46:00,SystemResetWarning,0824.1,5.00,000.00,024.5,023.4,000.0,032.9,025.8,17.0,0000.0,0001.43,0002.20,0001.13
2023-11-19 06:47:00,SystemResetWarning,0824.2,5.01,000.00,024.5,023.4,000.0,032.9,025.8,17.3,0000.0,0001.39,0002.13,0001.12
2023-11-19 06:48:00,SystemResetWarning,0824.2,5.01,000.00,024.5,023.4,000.0,032.9,025.8,17.4,0000.0,0001.37,0002.08,0001.12
2023-11-19 06:49:00,SystemResetWarning,0824.2,5.01,000.00,024.5,023.4,000.0,032.9,025.8,17.4,0000.0,0001.37,0002.06,0001.12
2023-11-19 06:50:00,SystemResetWarning,0824.1,4.99,000.00,024.5,023.4,000.0,032.9,025.8,17.5,0000.0,0001.35,0002.02,0001.12
2023-11-19 06:51:00,SystemResetWarning,0824.0,4.99,000.00,024.5,023.4,000.0,032.9,025.8,17.5,0000.0,0001.33,0001.99,0001.11
2023-11-19 06:52:00,SystemResetWarning,0824.0,5.00,000.00,024.5,023.4,000.0,032.9,025.8,17.6,0000.0,0001.32,0001.87,0001.11
2023-11-19 06:53:00,SystemResetWarning,0824.0,5.00,000.00,024.5,023.4,000.0,032.9,025.8,17.7,0000.0,0001.32,0001.86,0001.11
2023-11-19 06:54:00,SystemResetWarning,0824.0,5.00,000.00,024.5,023.4,000.0,032.9,025.8,17.6,0000.0,0001.32,0001.88,0001.11
2023-11-19 06:55:00,SystemResetWarning,0824.0,5.00,000.00,024.5,023.4,000.0,032.9,025.8,17.5,0000.0,0001.27,0001.74,0001.09
2023-11-19 06:56:00,SystemResetWarning,0824.0,5.00,000.00,024.5,023.5,000.0,032.9,025.8,17.5,0000.0,0001.23,0001.68,0001.08
2023-11-19 06:57:00,SystemResetWarning,0824.0,5.00,000.00,024.5,023.5,000.0,032.9,025.9,17.5,0000.0,0001.23,0001.74,0001.07
2023-11-19 06:58:00,SystemResetWarning,0824.0,5.00,000.00,024.5,023.5,000.0,032.9,025.9,17.4,0000.0,0001.29,0001.88,0001.08
2023-11-19 06:59:00,SystemResetWarning,0824.0,5.01,000.00,024.5,023.5,000.0,032.9,025.9,17.4,0000.0,0001.32,0002.08,0001.08
